Regional Weather Roundup
Issued by NWS

Home | Current Version | Previous Version | Text Only | Print | Product List | Glossary Off
Versions: 1 2 3 4 5 6 7 8 9 10 11 12 13 14 15 16 17 18 19 20 21 22 23 24 25 26 27 28 29 30 31 32 33 34 35 36 37 38 39 40 41 42 43 44 45 46 47 48 49 50

957
ASUS45 KBOU 201110
RWRCO

WEATHER ROUNDUP FOR COLORADO
NATIONAL WEATHER SERVICE DENVER/BOULDER CO
400 AM MST MON NOV 20 2017

NOTE: "FAIR" INDICATES FEW OR NO CLOUDS BELOW 12000 FEET WITH NO
SIGNIFICANT WEATHER AND/OR OBSTRUCTIONS TO VISIBILITY.

COZ001>005-013-030-031-201200-
...NORTHWEST COLORADO...

CITY           SKY/WX    TMP DP  RH WIND       PRES   REMARKS
CRAIG          FAIR      18  13  80 NW3       30.13F
HAYDEN         FAIR      21  14  74 E14       30.13F WCI   8
MEEKER         FAIR      21  14  74 E3        30.15S
RABBIT EARS PA FAIR      19   5  53 W12G21    30.12F WCI   7
STEAMBOAT SPGS FAIR      12  10  90 CALM      30.14S
WALDEN         FAIR      30   5  34 E17       30.08F WCI  18
$$

COZ006>008-011-201200-
...WEST CENTRAL VALLEYS...

CITY           SKY/WX    TMP DP  RH WIND       PRES   REMARKS
GRAND JUNCTION FAIR      26  17  68 E3        30.20F
MONTROSE       FAIR      24  16  71 S7        30.24R WCI  16
EAGLE          FAIR      15  11  83 CALM      30.23S
RIFLE          FAIR      19  15  84 N3        30.24R
DELTA          FAIR      23  15  72 CALM      30.23S
NUCLA          FAIR      23   7  50 SE3       30.24S
$$

COZ017>023-064>068-201200-
...SOUTHWEST COLORADO...

CITY           SKY/WX    TMP DP  RH WIND       PRES   REMARKS
DURANGO        FAIR      17  11  77 NE3       30.18F
CORTEZ         FAIR      18   9  68 E6        30.21S WCI  10
PAGOSA SPRINGS FAIR      22  15  75 CALM      30.19F
TELLURIDE      FAIR      28  -2  27 SE7       30.25S WCI  21
WOLF CREEK PAS FAIR      25 -11  20 SW10      30.29F WCI  15
$$

COZ009-010-012-014-032>034-037-058>063-201200-
...CENTRAL COLORADO...

CITY           SKY/WX    TMP DP  RH WIND       PRES   REMARKS
ASPEN          FAIR      15   8  73 CALM      30.18S
BUENA VISTA    FAIR      22   6  49 CALM      30.08F
COPPER MTN     FAIR      25 -17  15 MISG      30.20F
BERTHOUD PASS  FAIR      19   9  63 NW40G47   30.11F WCI  -2
COTTONWOOD PAS FAIR      39 -24   6 NW9G28    30.09F
GUNNISON       FAIR       8   4  83 E3        30.29R
KREMMLING      FAIR      18  12  79 CALM      30.18F
LEADVILLE      FAIR      24 -14  18 VRB5      30.16S WCI  18
MONARCH PASS   FAIR      21  -9  25 W46       30.26F WCI   0
SALIDA         FAIR      33   0  25 NW7       30.15F WCI  27
SUNLIGHT       FAIR      21  -6  30 SW13G25   30.24S WCI   9
WILKERSON PASS FAIR      28 -18  12 W15G26    30.11R WCI  17
$$

COZ069>075-201200-
...SAN LUIS VALLEY/SANGRE DE CRISTO MOUNTAINS...

CITY           SKY/WX    TMP DP  RH WIND       PRES   REMARKS
ALAMOSA        FAIR       6   2  83 SE3       30.16F
DEL NORTE      FAIR      25   5  41 W16       30.17S WCI  12
LA VETA PASS   FAIR      27   1  33 SW35G41     N/A  WCI   9
SAGUACHE       FAIR      19   3  49 W5        30.17S WCI  13
$$

COZ035-036-038>040-201200-
...NORTHERN COLORADO FRONT RANGE...

CITY           SKY/WX    TMP DP  RH WIND       PRES   REMARKS
DENVER INTL AP MOCLDY    41   5  22 SW10      29.87F
DMNS CITY PARK   N/A     40   7  25 SE12      29.87S
AURORA         PTCLDY    38   6  25 SW10      29.88F
FRONT RANGE AP FAIR      45   6  20 SW14G20   29.87F
ERIE MUNI ARPT FAIR      36   9  33 S6        29.90F
BOULDER MUN AP FAIR      45   3  18 S6        29.85S
CENTENNIAL     FAIR      39   7  26 S13       29.89F
BROOMFIELD     FAIR      55  -6   8 W38G47    29.88R
FORT COLLINS   FAIR      27  17  66 N9        29.84F WCI  18
LONGMONT       FAIR      46   3  17 W3        29.87S
$$

COZ041-046-047-076>085-087-088-201200-
...PIKES PEAK/PALMER DIVIDE AND SOUTHERN FOOTHILLS...

CITY           SKY/WX    TMP DP  RH WIND       PRES   REMARKS
COLO. SPRINGS  FAIR      35   1  23 NE9       29.94F WCI  28
A. F. ACADEMY  FAIR      49 -13   7 SE3       29.93R
SCHRIEVER AFB  FAIR      32  -1  24 CALM      29.94F
CHEYENNE MTN   FAIR      44  -4  13 CALM      29.90S
ELLICOTT       NOT AVBL
FALCON         FAIR      41  -8  12 W12       29.96R
FORT CARSON    FAIR      32   8  37 N6        29.90F WCI  26
LIMON          FAIR      27  10  49 N5        29.89F WCI  22
MONUMENT HILL  FAIR      34   0  23 SW9       29.95F WCI  26
CANON CITY     FAIR      43   1  17 W7        29.94F
WALSENBURG     FAIR      46   0  14 W16G24    29.96R
TRINIDAD       FAIR      35  11  36 SW13      29.95F WCI  26
$$

COZ042>045-048>051-090-091-201200-
...NORTHEAST COLORADO...

CITY           SKY/WX    TMP DP  RH WIND       PRES   REMARKS
GREELEY ARPT   FAIR      23  18  81 N3        29.85F
AKRON          FAIR      39   8  27 SW13      29.83F
BURLINGTON     FAIR      28  15  58 SW9       29.84F WCI  19
WRAY           NOT AVBL
YUMA           FAIR      32  14  47 W9        29.82S WCI  24
STERLING       FAIR      23  18  80 S6        29.82F WCI  16
HOLYOKE        FAIR      32  18  55 W10       29.80F WCI  24
FORT MORGAN    FAIR      30  12  46 W12       29.84F WCI  21
$$

COZ086-089-092>099-201200-
...SOUTHEAST COLORADO...

CITY           SKY/WX    TMP DP  RH WIND       PRES   REMARKS
PUEBLO         FAIR      35  11  36 CALM      29.89F
LA JUNTA       FAIR      27  14  58 SW3       29.90F
LAMAR          FAIR      22  12  65 SW9       29.87F WCI  12
SPRINGFIELD      N/A     33  13  43 W10       29.89F WCI  25
$$




USA.gov is the U.S. government's official web portal to all federal, state and local government web resources and services.